sat.trackr.live / text

‹ back to catalog

STARLINK-3116

NORAD 49146 · 2021-082S

PAYLOAD ACTIVE UNKNOWN

§ Identity

Operator
Country
US
Launch date
2021-09-14
Launch site
AFWTR
Launch vehicle
Mass (kg)
RCS (m²)

Purposes: comms

External: N2YO · Heavens-Above · Gunter

§ Orbital elements

Epoch: 2026-09-14T23:19:53.332320Z

Period
96.16 min
Inclination
70.0006°
Eccentricity
0.0002605
Mean motion
14.97522833 rev/d
Perigee alt
572.7 km
Apogee alt
576.4 km
Semi-major
6,952.7 km
B*
1.3851e-5
RAAN
158.6005°
Arg perigee
272.5917°
Mean anomaly
87.4943°
Rev number
27,594

§ Raw data

STARLINK-31161 49146U 21082S   26257.97214505  .00000070  00000+0  13851-4 0  99902 49146  70.0006 158.6005 0002605 272.5917  87.4943 14.97522833275946

JSON: /api/v1/satellites/49146 · /tle

For live sub-satellite position, see the globe view (requires WebGL).

§ Visibility from observer

Set your observer location to see the next 7 days of passes ≥ 10°. The values pass through the URL so the page stays shareable.

No JS? Fill the form by hand. The geolocation button needs JavaScript.